Location: Cuiabá
(15.6014°S, 56.0979°W)
Time: 17:55:58
(UTC-04:00)

Hubble Space Telescope - Pass Details

Date: 02 December 2022
Orbit: 529 x 532 km, 28.5° (Epoch: 04 February)

Event Time Altitude Azimuth Distance (km) Brightness Sun altitude
Rises 20:40:46 0° 247° (WSW) 2,676 5.3 -33.3°
Reaches altitude 10° 20:43:53 10° 222° (SW) 1,787 4.2 -33.8°
Enters shadow 20:45:20 14° 202° (SSW) 1,554 3.7 -34.1°
